Regional Weather Roundup
Issued by NWS Albany, NY

Home | Current Version | Previous Version | Graphics & Text | Print | Product List | Glossary Off
Versions: 1 2 3 4 5 6 7 8 9 10 11 12 13 14 15 16 17 18 19 20 21 22 23 24 25 26 27

000
ASUS41 KALY 300610
RWRALY

NEW YORK STATE HOURLY WEATHER ROUNDUP
NATIONAL WEATHER SERVICE ALBANY NY
200 AM EDT SAT JUL 30 2016

NOTE: "FAIR" INDICATES FEW OR NO CLOUDS BELOW 12,000 FEET WITH NO
SIGNIFICANT WEATHER AND/OR NO OBSTRUCTIONS TO VISIBILITY.

NYZ032-033-038>043-046>054-057>066-NYZ062>081-082-084-300700-
EAST


CITY           SKY/WX    TMP DP  RH WIND       PRES   REMARKS
ALBANY         PTCLDY    68  59  73 N3        29.98R
GLENS FALLS    CLEAR     67  59  75 N5        29.99R
POUGHKEEPSIE   CLEAR     70  66  87 CALM      29.94S
NEWBURGH       CLEAR     70  70 100 CALM      29.97S
MONTGOMERY     MOCLDY    68  67  96 CALM      29.96R
WHITE PLAINS   CLEAR     71  68  90 CALM      29.94S
ISLIP          CLEAR     72  70  93 CALM      29.93S
NEW YORK CITY  CLOUDY    78  70  76 SW6       29.92S
CENTRAL PARK   CLOUDY    77  69  76 CALM      29.96S
$$

NYZ005>009-017-018-044>046-055-056-300700-
CENTRAL


CITY           SKY/WX    TMP DP  RH WIND       PRES   REMARKS
FULTON         CLEAR     68  56  65 NE5       30.01S
SYRACUSE       PTCLDY    63  59  87 CALM      30.00S
ROME           CLEAR     63  57  81 N5        30.01S
ELMIRA         MOCLDY    67  56  67 CALM      30.00S
BINGHAMTON     CLEAR     66  54  65 NE6       30.02S
MONTICELLO     CLEAR     64  63  94 CALM      30.02R
$$

NYZ026>034-041>043-087-300700-
NORTH


CITY           SKY/WX    TMP DP  RH WIND       PRES   REMARKS
WATERTOWN      CLEAR     58  53  84 E3        30.03S
FORT DRUM      NOT AVBL
MASSENA        MOCLDY    61  54  77 CALM      30.04R
SARANAC LAKE   PTCLDY    47  45  93 CALM      30.05R
PLATTSBURGH    PTCLDY    64  57  78 NW6       30.01R
$$

NYZ001>004-010>016-019>021-085-300700-
WEST


CITY           SKY/WX    TMP DP  RH WIND       PRES   REMARKS
NIAGARA FALLS  PTCLDY    71  62  73 E10       30.00R
BUFFALO        MOCLDY    68  59  73 NE7       30.00R
DUNKIRK        CLEAR     67  61  81 NE5       29.97F
JAMESTOWN      CLEAR     66  61  82 E6        30.01F
WELLSVILLE     CLOUDY    66  59  78 CALM      30.06F
ROCHESTER      CLEAR     71  62  73 E12       30.01S
PENN YAN       PTCLDY    65  57  75 CALM      30.02S
$$

             KEY
       WCI = WIND CHILL INDEX
       VSB = VISIBILITY
       HX  = HEAT INDEX
$$




USA.gov is the U.S. government's official web portal to all federal, state and local government web resources and services.